Вернуться в каталог

STARLINK-4356

АктивенСвязьSSO
NORAD 53224·PAYLOAD·🇺🇸 United States

Запущен Jul 22, 2022 с Vandenberg Space Force Base

Loading…

Ближайшие Пролёты (ближайшие 24 часа)

TLE

СвежийSource: CelesTrak SupGP

Эпоха: Sep 14, 2026, 20:54 UTC

1 53224C 22084AM  26257.87131944 -.00040416  00000+0 -12547-2 0  2575
2 53224  97.2838 312.7328 0001055  93.7704  87.2749 15.33456885    18

Отслеживайте STARLINK-4356 в реальном времени с AllMySat

Download on the App Store